sat.trackr.live / text

‹ back to catalog

STARLINK-11427 [DTC]

NORAD 62063 · 2024-217G

PAYLOAD ACTIVE UNKNOWN

§ Identity

Operator
Country
US
Launch date
2024-11-24
Launch site
AFWTR
Launch vehicle
Mass (kg)
RCS (m²)

Purposes: comms

External: N2YO · Heavens-Above · Gunter

§ Orbital elements

Epoch: 2026-09-21T07:10:32.596032Z

Period
91.73 min
Inclination
53.1578°
Eccentricity
0.0001254
Mean motion
15.69753500 rev/d
Perigee alt
358.8 km
Apogee alt
360.4 km
Semi-major
6,737.7 km
B*
1.0378e-3
RAAN
187.1598°
Arg perigee
122.5204°
Mean anomaly
237.5935°
Rev number
10,589

§ Raw data

STARLINK-11427 [DTC]1 62063U 24217G   26264.29898838  .00127313  00000+0  10378-2 0  99952 62063  53.1578 187.1598 0001254 122.5204 237.5935 15.69753500105893

JSON: /api/v1/satellites/62063 · /tle

For live sub-satellite position, see the globe view (requires WebGL).

§ Visibility from observer

Set your observer location to see the next 7 days of passes ≥ 10°. The values pass through the URL so the page stays shareable.

No JS? Fill the form by hand. The geolocation button needs JavaScript.